When you browse on this site, cookies collect data to enhance your experience and personalize the content and advertising you see.
Visit our Privacy Policy to learn more. By continuing to use the site, you agree to this use of cookies and data.
  • Em Portugal
  • Lista de países
  • Para 7 dias
  • Temperatura da água
  • Mapa do tempo
  • Widgets de tempo
  • user-avatar
    Iniciar Sessão

    Previsão horária em Luhovka

    Hoje, 4 Junho, Quinta-feira

    Tempo Temperatura Precipitação Vento Pressão Humidade
    00:00 +16°C° 0.3 mm 7 m/s 743 mmHg 94%
    01:00 +16°C° 0.5 mm 6 m/s 743 mmHg 94%
    02:00 +15°C° 0.5 mm 6 m/s 742 mmHg 94%
    03:00 +15°C° 0 mm 5 m/s 742 mmHg 92%
    04:00 +16°C° 0.3 mm 5 m/s 742 mmHg 93%
    05:00 +16°C° 0.3 mm 5 m/s 742 mmHg 93%
    06:00 +16°C° 0.3 mm 6 m/s 741 mmHg 93%
    07:00 +16°C° 0 mm 5 m/s 742 mmHg 92%
    08:00 +17°C° 0 mm 5 m/s 742 mmHg 91%
    09:00 +19°C° 0 mm 5 m/s 742 mmHg 91%
    10:00 +19°C° 0.1 mm 4 m/s 742 mmHg 89%
    11:00 +20°C° 0.1 mm 4 m/s 742 mmHg 88%
    12:00 +20°C° 0.1 mm 4 m/s 742 mmHg 87%
    13:00 +20°C° 0.6 mm 4 m/s 742 mmHg 87%
    14:00 +20°C° 0.6 mm 4 m/s 742 mmHg 87%
    15:00 +20°C° 0.6 mm 4 m/s 742 mmHg 87%
    16:00 +20°C° 0.1 mm 4 m/s 742 mmHg 86%
    17:00 +20°C° 0.1 mm 4 m/s 742 mmHg 84%
    18:00 +20°C° 0.1 mm 4 m/s 742 mmHg 83%
    19:00 +19°C° 0 mm 4 m/s 743 mmHg 86%
    20:00 +17°C° 0 mm 3 m/s 744 mmHg 89%
    21:00 +16°C° 0 mm 3 m/s 744 mmHg 92%
    22:00 +16°C° 0 mm 3 m/s 745 mmHg 93%
    23:00 +14°C° 0 mm 3 m/s 745 mmHg 93%

    Amanhã, 5 Junho, Sexta-feira

    Tempo Temperatura Precipitação Vento Pressão Humidade
    00:00 +13°C° 0 mm 3 m/s 746 mmHg 94%
    01:00 +13°C° 0 mm 3 m/s 746 mmHg 94%
    02:00 +13°C° 0 mm 2 m/s 747 mmHg 94%
    03:00 +13°C° 0 mm 2 m/s 748 mmHg 93%
    04:00 +14°C° 0 mm 2 m/s 748 mmHg 92%
    05:00 +15°C° 0 mm 2 m/s 748 mmHg 91%
    06:00 +15°C° 0 mm 2 m/s 748 mmHg 90%
    07:00 +17°C° 0 mm 2 m/s 748 mmHg 85%
    08:00 +18°C° 0 mm 2 m/s 749 mmHg 81%
    09:00 +19°C° 0 mm 2 m/s 749 mmHg 76%
    10:00 +20°C° 0.2 mm 2 m/s 749 mmHg 73%
    11:00 +21°C° 0.2 mm 3 m/s 749 mmHg 71%
    12:00 +21°C° 0.2 mm 3 m/s 749 mmHg 68%
    13:00 +21°C° 0.4 mm 3 m/s 749 mmHg 70%
    14:00 +20°C° 0.4 mm 3 m/s 749 mmHg 72%
    15:00 +20°C° 0.4 mm 4 m/s 749 mmHg 74%
    16:00 +20°C° 0.6 mm 3 m/s 748 mmHg 77%
    17:00 +19°C° 0.6 mm 3 m/s 748 mmHg 80%
    18:00 +19°C° 0.6 mm 3 m/s 748 mmHg 83%
    19:00 +18°C° 0.1 mm 3 m/s 748 mmHg 86%
    20:00 +17°C° 0.1 mm 2 m/s 748 mmHg 89%
    21:00 +15°C° 0.1 mm 2 m/s 748 mmHg 92%
    22:00 +15°C° 0 mm 2 m/s 749 mmHg 92%
    23:00 +14°C° 0 mm 2 m/s 749 mmHg 93%

    Depois de amanhã, 6 Junho, Sábado

    Tempo Temperatura Precipitação Vento Pressão Humidade
    00:00 +14°C° 0 mm 2 m/s 749 mmHg 94%
    01:00 +13°C° 0 mm 2 m/s 749 mmHg 94%
    02:00 +13°C° 0 mm 2 m/s 749 mmHg 94%
    03:00 +13°C° 0 mm 2 m/s 749 mmHg 94%
    04:00 +13°C° 0 mm 2 m/s 749 mmHg 92%
    05:00 +14°C° 0 mm 2 m/s 749 mmHg 91%
    06:00 +15°C° 0 mm 2 m/s 749 mmHg 90%
    07:00 +16°C° 0 mm 3 m/s 750 mmHg 87%
    08:00 +17°C° 0 mm 4 m/s 750 mmHg 85%
    09:00 +19°C° 0 mm 4 m/s 750 mmHg 83%
    10:00 +19°C° 0.3 mm 5 m/s 750 mmHg 81%
    11:00 +20°C° 0.3 mm 5 m/s 750 mmHg 80%
    12:00 +21°C° 0.3 mm 5 m/s 750 mmHg 78%
    13:00 +21°C° 0.4 mm 5 m/s 750 mmHg 79%
    14:00 +21°C° 0.4 mm 5 m/s 750 mmHg 79%
    15:00 +22°C° 0.4 mm 5 m/s 750 mmHg 79%
    16:00 +21°C° 0.2 mm 4 m/s 750 mmHg 81%
    17:00 +21°C° 0.2 mm 3 m/s 750 mmHg 82%
    18:00 +21°C° 0.2 mm 3 m/s 750 mmHg 84%
    19:00 +20°C° 0.2 mm 2 m/s 750 mmHg 87%
    20:00 +18°C° 0.2 mm 2 m/s 750 mmHg 90%
    21:00 +17°C° 0.2 mm 2 m/s 751 mmHg 93%
    22:00 +17°C° 0.1 mm 2 m/s 751 mmHg 94%
    23:00 +16°C° 0.1 mm 2 m/s 751 mmHg 94%

    7 Junho, Domingo

    Tempo Temperatura Precipitação Vento Pressão Humidade
    00:00 +16°C° 0.1 mm 2 m/s 751 mmHg 95%
    01:00 +16°C° 0 mm 2 m/s 751 mmHg 95%
    02:00 +16°C° 0 mm 2 m/s 751 mmHg 95%
    03:00 +16°C° 0 mm 1 m/s 751 mmHg 95%
    04:00 +16°C° 0 mm 1 m/s 752 mmHg 94%
    05:00 +18°C° 0 mm 1 m/s 752 mmHg 93%
    06:00 +19°C° 0 mm 1 m/s 752 mmHg 93%
    07:00 +20°C° 0.1 mm 1 m/s 752 mmHg 91%
    08:00 +20°C° 0.1 mm 2 m/s 752 mmHg 89%
    09:00 +21°C° 0.1 mm 2 m/s 752 mmHg 87%
    10:00 +23°C° 1.2 mm 2 m/s 753 mmHg 82%
    11:00 +24°C° 1.2 mm 2 m/s 753 mmHg 78%
    12:00 +25°C° 1.2 mm 2 m/s 753 mmHg 74%
    13:00 +25°C° 1 mm 1 m/s 753 mmHg 74%
    14:00 +25°C° 1 mm 1 m/s 752 mmHg 75%
    15:00 +25°C° 1 mm 1 m/s 752 mmHg 76%
    16:00 +25°C° 0.5 mm 1 m/s 752 mmHg 78%
    17:00 +25°C° 0.5 mm 1 m/s 752 mmHg 81%
    18:00 +24°C° 0.5 mm 1 m/s 752 mmHg 83%
    19:00 +23°C° 0.2 mm 1 m/s 752 mmHg 84%
    20:00 +22°C° 0.2 mm 1 m/s 752 mmHg 85%
    21:00 +21°C° 0.2 mm 1 m/s 752 mmHg 86%
    22:00 +20°C° 0.2 mm 1 m/s 752 mmHg 87%
    23:00 +20°C° 0.2 mm 1 m/s 752 mmHg 89%

    8 Junho, Segunda-feira

    Tempo Temperatura Precipitação Vento Pressão Humidade
    00:00 +20°C° 0.2 mm 1 m/s 752 mmHg 90%
    01:00 +19°C° 0.3 mm 1 m/s 752 mmHg 90%
    02:00 +17°C° 0.3 mm 0 m/s 752 mmHg 91%
    03:00 +16°C° 0.3 mm 0 m/s 752 mmHg 92%
    04:00 +17°C° 0 mm 0 m/s 752 mmHg 91%
    05:00 +18°C° 0 mm 0 m/s 752 mmHg 90%
    06:00 +21°C° 0 mm 1 m/s 752 mmHg 89%
    07:00 +22°C° 0.2 mm 1 m/s 752 mmHg 86%
    08:00 +23°C° 0.2 mm 1 m/s 752 mmHg 83%
    09:00 +24°C° 0.2 mm 2 m/s 752 mmHg 80%
    10:00 +25°C° 2.2 mm 2 m/s 752 mmHg 78%
    11:00 +25°C° 2.2 mm 2 m/s 752 mmHg 76%
    12:00 +26°C° 2.2 mm 3 m/s 752 mmHg 74%
    13:00 +26°C° 1.5 mm 2 m/s 751 mmHg 73%
    14:00 +26°C° 1.5 mm 2 m/s 751 mmHg 72%
    15:00 +26°C° 1.5 mm 1 m/s 751 mmHg 71%
    16:00 +26°C° 0.6 mm 2 m/s 751 mmHg 75%
    17:00 +25°C° 0.6 mm 2 m/s 751 mmHg 80%
    18:00 +25°C° 0.6 mm 3 m/s 751 mmHg 85%
    19:00 +22°C° 0.2 mm 3 m/s 751 mmHg 88%
    20:00 +21°C° 0.2 mm 3 m/s 751 mmHg 91%
    21:00 +19°C° 0.2 mm 3 m/s 751 mmHg 94%
    22:00 +19°C° 0 mm 2 m/s 751 mmHg 94%
    23:00 +18°C° 0 mm 2 m/s 751 mmHg 94%

    9 Junho, Terça-feira

    Tempo Temperatura Precipitação Vento Pressão Humidade
    00:00 +18°C° 0 mm 2 m/s 751 mmHg 94%
    01:00 +17°C° 0 mm 2 m/s 751 mmHg 94%
    02:00 +18°C° 0 mm 1 m/s 751 mmHg 94%
    03:00 +18°C° 0 mm 1 m/s 751 mmHg 95%
    04:00 +18°C° 0 mm 1 m/s 752 mmHg 94%
    05:00 +19°C° 0 mm 1 m/s 752 mmHg 93%
    06:00 +20°C° 0 mm 1 m/s 752 mmHg 92%
    07:00 +21°C° 0 mm 1 m/s 752 mmHg 89%
    08:00 +22°C° 0 mm 1 m/s 752 mmHg 85%
    09:00 +24°C° 0 mm 1 m/s 752 mmHg 82%
    10:00 +24°C° 0.4 mm 1 m/s 752 mmHg 78%
    11:00 +25°C° 0.4 mm 1 m/s 753 mmHg 74%
    12:00 +26°C° 0.4 mm 1 m/s 753 mmHg 69%
    13:00 +27°C° 0.1 mm 1 m/s 753 mmHg 68%
    14:00 +27°C° 0.1 mm 1 m/s 752 mmHg 67%
    15:00 +27°C° 0.1 mm 1 m/s 752 mmHg 66%
    16:00 +27°C° 0.2 mm 1 m/s 752 mmHg 70%
    17:00 +26°C° 0.2 mm 1 m/s 752 mmHg 75%
    18:00 +26°C° 0.2 mm 1 m/s 752 mmHg 79%
    19:00 +24°C° 0 mm 1 m/s 752 mmHg 82%
    20:00 +20°C° 0 mm 0 m/s 752 mmHg 85%
    21:00 +19°C° 0 mm 0 m/s 752 mmHg 89%
    22:00 +18°C° 0 mm 0 m/s 753 mmHg 89%
    23:00 +18°C° 0 mm 0 m/s 753 mmHg 89%
    Mostrar mais